Leamington, UT

7:27 AM MDT on August 31, 2015 (GMT -0600)
MesoWest | | Change Station
CLOSE
Current Station
Personal Weather Station
Location: Leamington, UT
Elevation: 5201 ft
Nearby Weather Stations

Elev 5201 ft 39.71 °N, 112.21 °W | Updated 4 hours ago

Scattered Clouds
Scattered Clouds
69.0 °F
Feels Like 69.0 °F
N
255.0
Wind Variable Wind from North
Gusts 255.0 mph

Today
High -- | Low -- °F
--% Chance of Precip.
Yesterday
High -- | Low -- °F
Precip. -- in
6:55 AM 8:01 PM
Waning Gibbous, 95% visible
Pressure 30.03 in
Visibility 15.0 miles
Clouds Scattered Clouds 9000 ft
Dew Point Not available.
Humidity Not available.
Rainfall in
Snow Depth Not available.
UV 0 out of 12
Pollen 9.10 out of 12
Air Quality Not available.
Flu Activity Not available.
METAR KPVU 311257Z 13003KT 15SM SCT090 14/08 A3003
Pressure 30.03 in
Visibility 15.0 miles
Clouds Scattered Clouds 9000 ft
Dew Point Not available.
Humidity Not available.
Rainfall in
Snow Depth Not available.
UV 0 out of 12
Pollen 9.10 out of 12
Air Quality Not available.
Flu Activity Not available.
METAR KPVU 311257Z 13003KT 15SM SCT090 14/08 A3003

10-Day Weather Forecast

×

Almanac

Astronomy

Aug. 31, 2015 Rise Set
Actual Time
Civil Twilight
Nautical Twilight
Astronomical Twilight
Moon
Length of Visible Light
Length of Day
Tomorrow will be .
, % of the Moon is Illuminated

Today's Extremes

State Highs State Lows

Community

WunderPhotos

Upload Photos

1,851,231 photos uploaded!

WunderBlogs® & News

Nearby

Air Quality

  Air Quality AQ Index Pollutant
Not available.

Snow Depth

Station Depth Elevation

Earthquake Activity

City Distance Mag. Time & Date
Minimum magnitude displayed is 2.5.

Coastal Water Temperatures

Place Temperature

Stations

Nearby Weather Stations

Station Location Temp. Windchill Dew Point Humidity Wind Precip. Elev Updated Type